Weather in Krynica Morska

Poland     54°22′30″N   19°25′53″E
temp.,
°C
wind,
m/s
gust,
m/s
humid.,
%
clouds,
%
prec.,
mm/h
press.,
hPa
HPBL,
m
2 december, thu
thu201:00+6ssw121794100 4.4 982827
04:00+7sw141876100 0.9 9801743
07:00+4sw182283100 1.9 9791335
10:00+3sw202481100 0.1 9811264
13:00+4sw202482100 0.1 9821297
16:00+4wsw182190100 0.3 9851258
19:00+4wnw171887100 1.1 9901258
22:00+4wnw151675100 0.8 9951495
3 december, fri
fri301:00+4wnw141569100 1.8 9971679
04:00+4wnw12125970 0.5 9991910
07:00+4w10106136 0.5 10011353
10:00+1sw81078100 0.0 1002466
13:00+2wsw111184100 2.4 10011085
16:00+4w886674 0.3 10021418
19:00+4w5566100 0.3 10041031
22:00+2ssw6799100 0.6 1005385
4 december, sat
sat401:00+3sw101184100 2.1 1005616
04:00+2ssw9108181 0.0 1004526
07:00+2ssw101275100 0.0 1003590
10:00+1ssw91189100 0.1 1003592
13:00+2s101185100 0.6 1002717
16:00+2s9979100 0.1 1002629
19:00+2sse7870100 0.1 1002710
22:00+1sse5480100 0.0 1002396
5 december, sun
sun501:00+1se5582100 0.0 1002486
04:00+2ese5574100 0.0 1003471
07:00+2e6778100 0.0 1003631
10:00+1e7796100 0.1 1004558
13:00+2ene8886100 0.3 1005756
16:00+2ene8887100 0.3 1006762
19:00+3ne7883100 0.5 1008882
22:00+3ne7781100 0.4 1009955
6 december, mon
mon601:00+3nne8979100 0.8 10101066
04:00+3nne91079100 0.3 10121157
07:00+2nne9981100 0.6 10141109
10:00+3nne9975100 0.3 10171210
13:00+3nne8976100 0.6 10181183
16:00+3n101075100 0.6 10201258
19:00+3nne91068100 1.0 10211586
22:00+3n9964100 0.4 10231465